ROU2035 CYYG-CYUL

Flight info

Callsign ROU2035
Flight time 1h 17m
Altitude 38000
Route IKURO Q858 DULBA DCT KEBIG ROCKT3
Aircraft A319/M-SDE3FGHIRWY/LB1

Departure

Time 2026-04-22 23:22
Airport Charlottetown Airport (CYYG)

Arrival

Time 2026-04-23 00:39
Airport Montreal / Pierre Elliott Trudeau International Airport (CYUL)
Time Latitude Longitude Altitude Speed Heading
2026-04-22 23:01 46.28615 -63.13029 170 ft 0 kts 236°
2026-04-22 23:15 46.28621 -63.13015 170 ft 4 kts 234°
2026-04-22 23:15 46.28638 -63.12985 170 ft 4 kts 226°
2026-04-22 23:16 46.28658 -63.12959 170 ft 4 kts 211°
2026-04-22 23:16 46.28679 -63.12947 170 ft 0 kts 165°
2026-04-22 23:18 46.28675 -63.12945 170 ft 2 kts 165°
2026-04-22 23:18 46.28646 -63.12939 170 ft 6 kts 180°
2026-04-22 23:18 46.28593 -63.12949 170 ft 10 kts 186°
2026-04-22 23:19 46.28514 -63.12968 170 ft 13 kts 189°
2026-04-22 23:19 46.28413 -63.12999 170 ft 16 kts 204°
2026-04-22 23:19 46.28301 -63.13051 170 ft 18 kts 183°
2026-04-22 23:19 46.28174 -63.13080 170 ft 19 kts 188°
2026-04-22 23:20 46.28039 -63.13112 170 ft 16 kts 189°
2026-04-22 23:20 46.27970 -63.13087 170 ft 16 kts 137°
2026-04-22 23:20 46.27956 -63.12880 163 ft 19 kts 72°
2026-04-22 23:20 46.27979 -63.12789 170 ft 10 kts 65°
2026-04-22 23:21 46.28027 -63.12723 170 ft 11 kts 19°
2026-04-22 23:21 46.28066 -63.12712 169 ft 3 kts
2026-04-22 23:21 46.28264 -63.12667 165 ft 72 kts
2026-04-22 23:21 46.29023 -63.12499 169 ft 146 kts
2026-04-22 23:22 46.30102 -63.12261 660 ft 160 kts
2026-04-22 23:22 46.31221 -63.12039 1490 ft 162 kts
2026-04-22 23:22 46.32275 -63.12454 2449 ft 158 kts 325°
2026-04-22 23:22 46.32923 -63.13775 3209 ft 174 kts 285°
2026-04-22 23:23 46.32654 -63.15516 3876 ft 200 kts 234°
2026-04-22 23:23 46.31357 -63.16495 4455 ft 231 kts 186°
2026-04-22 23:23 46.29703 -63.15921 4995 ft 264 kts 151°
2026-04-22 23:23 46.28121 -63.14429 5920 ft 276 kts 150°
2026-04-22 23:24 46.26418 -63.13090 7008 ft 280 kts 153°
2026-04-22 23:24 46.24682 -63.11769 8070 ft 285 kts 153°
2026-04-22 23:24 46.22908 -63.10417 9127 ft 290 kts 153°
2026-04-22 23:24 46.21108 -63.09031 10165 ft 297 kts 152°
2026-04-22 23:25 46.19469 -63.07040 10616 ft 323 kts 128°
2026-04-22 23:25 46.18062 -63.04381 11146 ft 341 kts 133°
2026-04-22 23:25 46.16083 -63.02503 11936 ft 346 kts 162°
2026-04-22 23:25 46.13719 -63.02153 12849 ft 344 kts 191°
2026-04-22 23:26 46.11520 -63.03399 13779 ft 341 kts 218°
2026-04-22 23:26 46.09972 -63.05938 14609 ft 339 kts 243°
2026-04-22 23:26 46.09099 -63.09089 15458 ft 340 kts 256°
2026-04-22 23:26 46.08803 -63.12478 16271 ft 343 kts 272°
2026-04-22 23:27 46.09012 -63.15909 17066 ft 346 kts 276°
2026-04-22 23:27 46.09304 -63.19366 17862 ft 350 kts 277°
2026-04-22 23:27 46.09644 -63.22859 18623 ft 354 kts 277°
2026-04-22 23:27 46.10008 -63.26372 19287 ft 358 kts 277°
2026-04-22 23:28 46.10382 -63.29936 19965 ft 361 kts 277°
2026-04-22 23:28 46.10758 -63.33537 20648 ft 365 kts 277°
2026-04-22 23:28 46.11129 -63.37175 21327 ft 368 kts 277°
2026-04-22 23:28 46.11498 -63.40849 21998 ft 372 kts 277°
2026-04-22 23:29 46.11861 -63.44562 22667 ft 376 kts 277°
2026-04-22 23:29 46.12224 -63.48317 23315 ft 379 kts 277°
2026-04-22 23:29 46.12589 -63.52095 23919 ft 382 kts 277°
2026-04-22 23:29 46.12959 -63.55906 24419 ft 386 kts 276°
2026-04-22 23:30 46.13331 -63.59748 24902 ft 390 kts 276°
2026-04-22 23:30 46.13708 -63.63629 25380 ft 393 kts 277°
2026-04-22 23:30 46.14090 -63.67560 25855 ft 397 kts 276°
2026-04-22 23:30 46.14472 -63.71516 26317 ft 400 kts 276°
2026-04-22 23:31 46.14854 -63.75512 26773 ft 404 kts 276°
2026-04-22 23:31 46.15238 -63.79533 27225 ft 407 kts 276°
2026-04-22 23:31 46.15626 -63.83590 27681 ft 410 kts 276°
2026-04-22 23:31 46.16019 -63.87702 28122 ft 414 kts 276°
2026-04-22 23:32 46.16411 -63.91826 28555 ft 417 kts 276°
2026-04-22 23:32 46.16804 -63.95980 28988 ft 420 kts 276°
2026-04-22 23:32 46.17199 -64.00172 29413 ft 423 kts 276°
2026-04-22 23:32 46.17597 -64.04407 29830 ft 427 kts 276°
2026-04-22 23:33 46.17992 -64.08659 30198 ft 430 kts 276°
2026-04-22 23:33 46.18385 -64.12942 30513 ft 433 kts 276°
2026-04-22 23:33 46.18778 -64.17272 30821 ft 436 kts 276°
2026-04-22 23:33 46.19170 -64.21631 31108 ft 439 kts 276°
2026-04-22 23:34 46.19560 -64.25935 31397 ft 442 kts 276°
2026-04-22 23:34 46.19970 -64.30404 31684 ft 444 kts 276°
2026-04-22 23:34 46.20372 -64.34831 32061 ft 445 kts 276°
2026-04-22 23:34 46.20772 -64.39262 32471 ft 444 kts 276°
2026-04-22 23:35 46.21169 -64.43684 32849 ft 445 kts 276°
2026-04-22 23:35 46.21567 -64.48115 33242 ft 445 kts 276°
2026-04-22 23:35 46.21962 -64.52537 33629 ft 445 kts 276°
2026-04-22 23:35 46.22356 -64.56975 34021 ft 446 kts 276°
2026-04-22 23:36 46.22748 -64.61423 34364 ft 446 kts 276°
2026-04-22 23:36 46.23135 -64.65855 34701 ft 446 kts 276°
2026-04-22 23:36 46.23523 -64.70295 35013 ft 446 kts 276°
2026-04-22 23:36 46.23914 -64.74759 35110 ft 446 kts 276°
2026-04-22 23:37 46.24687 -64.83622 35137 ft 445 kts 276°
2026-04-22 23:37 46.25445 -64.92502 35147 ft 445 kts 276°
2026-04-22 23:38 46.25820 -64.96948 35456 ft 445 kts 276°
2026-04-22 23:38 46.26194 -65.01380 35799 ft 444 kts 276°
2026-04-22 23:38 46.26439 -65.04306 36006 ft 444 kts 276°
2026-04-22 23:38 46.26933 -65.10226 36400 ft 444 kts 276°
2026-04-22 23:39 46.27286 -65.14669 36681 ft 444 kts 273°
2026-04-22 23:39 46.27296 -65.19102 36942 ft 443 kts 266°
2026-04-22 23:39 46.27130 -65.23573 37200 ft 443 kts 266°
2026-04-22 23:39 46.26966 -65.28022 37451 ft 443 kts 266°
2026-04-22 23:40 46.26800 -65.32458 37698 ft 443 kts 266°
2026-04-22 23:40 46.26630 -65.36908 37938 ft 443 kts 266°
2026-04-22 23:40 46.26461 -65.41305 38102 ft 444 kts 266°
2026-04-22 23:40 46.26284 -65.45815 38136 ft 444 kts 266°
2026-04-22 23:41 46.25934 -65.54659 38136 ft 443 kts 266°
2026-04-22 23:41 46.25577 -65.63547 38133 ft 443 kts 266°
2026-04-22 23:42 46.25223 -65.72420 38133 ft 443 kts 266°
2026-04-22 23:42 46.24853 -65.81309 38134 ft 443 kts 266°
2026-04-22 23:43 46.24473 -65.90189 38139 ft 443 kts 266°
2026-04-22 23:43 46.24093 -65.99072 38146 ft 443 kts 266°
2026-04-22 23:44 46.23708 -66.07959 38149 ft 443 kts 266°
2026-04-22 23:44 46.23313 -66.16827 38150 ft 442 kts 266°
2026-04-22 23:45 46.22914 -66.25703 38143 ft 442 kts 266°
2026-04-22 23:45 46.22500 -66.34552 38144 ft 442 kts 266°
2026-04-22 23:46 46.22075 -66.43384 38141 ft 442 kts 266°
2026-04-22 23:46 46.21684 -66.52236 38141 ft 441 kts 268°
2026-04-22 23:47 46.21406 -66.61079 38141 ft 441 kts 268°
2026-04-22 23:47 46.21145 -66.69927 38141 ft 441 kts 268°
2026-04-22 23:48 46.20846 -66.78760 38144 ft 441 kts 268°
2026-04-22 23:48 46.20533 -66.87254 38138 ft 440 kts 268°
2026-04-22 23:49 46.20203 -66.96085 38144 ft 440 kts 268°
2026-04-22 23:49 46.19869 -67.04891 38137 ft 440 kts 268°
2026-04-22 23:50 46.19531 -67.13700 38139 ft 439 kts 268°
2026-04-22 23:50 46.19189 -67.22487 38137 ft 439 kts 268°
2026-04-22 23:51 46.18845 -67.31267 38132 ft 438 kts 268°
2026-04-22 23:51 46.18493 -67.40048 38125 ft 438 kts 268°
2026-04-22 23:52 46.18126 -67.48828 38119 ft 438 kts 268°
2026-04-22 23:52 46.17752 -67.57596 38115 ft 438 kts 268°
2026-04-22 23:53 46.17378 -67.66366 38109 ft 437 kts 268°
2026-04-22 23:53 46.17009 -67.75095 38104 ft 437 kts 268°
2026-04-22 23:54 46.16630 -67.83760 38110 ft 437 kts 268°
2026-04-22 23:54 46.16223 -67.92583 38106 ft 436 kts 268°
2026-04-22 23:55 46.15818 -68.01308 38114 ft 436 kts 268°
2026-04-22 23:55 46.15409 -68.10019 38118 ft 435 kts 268°
2026-04-22 23:56 46.14996 -68.18744 38128 ft 435 kts 268°
2026-04-22 23:56 46.14584 -68.27432 38139 ft 435 kts 268°
2026-04-22 23:57 46.14232 -68.34667 38144 ft 435 kts 268°
2026-04-22 23:57 46.13724 -68.44822 38145 ft 435 kts 268°
2026-04-22 23:58 46.13293 -68.53461 38137 ft 435 kts 268°
2026-04-22 23:58 46.12850 -68.62158 38130 ft 434 kts 268°
2026-04-22 23:59 46.12398 -68.70822 38128 ft 434 kts 268°
2026-04-22 23:59 46.11934 -68.79499 38121 ft 433 kts 268°
2026-04-23 00:00 46.11311 -68.91009 38120 ft 433 kts 268°
2026-04-23 00:01 46.10768 -69.01118 38120 ft 432 kts 268°
2026-04-23 00:01 46.10293 -69.09761 38117 ft 432 kts 268°
2026-04-23 00:02 46.09804 -69.18380 38113 ft 432 kts 268°
2026-04-23 00:02 46.09309 -69.26992 38110 ft 431 kts 268°
2026-04-23 00:03 46.08814 -69.35594 38112 ft 430 kts 268°
2026-04-23 00:03 46.08314 -69.44173 38098 ft 430 kts 268°
2026-04-23 00:04 46.07809 -69.52760 38095 ft 429 kts 268°
2026-04-23 00:04 46.07382 -69.59871 38096 ft 429 kts 268°
2026-04-23 00:05 46.06865 -69.68430 38086 ft 429 kts 268°
2026-04-23 00:05 46.06248 -69.78382 38080 ft 429 kts 268°
2026-04-23 00:06 46.05802 -69.85530 38080 ft 429 kts 268°
2026-04-23 00:06 46.05265 -69.94093 38076 ft 429 kts 268°
2026-04-23 00:07 46.04722 -70.02637 38077 ft 429 kts 267°
2026-04-23 00:07 46.04172 -70.11190 38069 ft 429 kts 268°
2026-04-23 00:08 46.03618 -70.19740 38067 ft 429 kts 268°
2026-04-23 00:08 46.03057 -70.28276 38076 ft 429 kts 267°
2026-04-23 00:09 46.02479 -70.36826 38060 ft 429 kts 267°
2026-04-23 00:09 46.01894 -70.45359 38052 ft 429 kts 267°
2026-04-23 00:10 46.01312 -70.53893 38057 ft 429 kts 267°
2026-04-23 00:10 46.00732 -70.62440 38040 ft 429 kts 267°
2026-04-23 00:11 46.00137 -70.70962 38033 ft 429 kts 267°
2026-04-23 00:11 45.99540 -70.79505 38037 ft 429 kts 267°
2026-04-23 00:12 45.98967 -70.88030 38024 ft 428 kts 269°
2026-04-23 00:12 45.98807 -70.92310 37817 ft 428 kts 271°
2026-04-23 00:12 45.98726 -70.96579 37459 ft 426 kts 272°
2026-04-23 00:12 45.98684 -71.00830 36769 ft 426 kts 272°
2026-04-23 00:13 45.98652 -71.05107 35958 ft 428 kts 272°
2026-04-23 00:13 45.98604 -71.09402 35099 ft 431 kts 272°
2026-04-23 00:13 45.98529 -71.13709 34269 ft 430 kts 272°
2026-04-23 00:13 45.98433 -71.17996 33227 ft 426 kts 272°
2026-04-23 00:14 45.98325 -71.22216 32299 ft 418 kts 272°
2026-04-23 00:14 45.98217 -71.26324 31833 ft 407 kts 272°
2026-04-23 00:14 45.98113 -71.30372 31254 ft 402 kts 273°
2026-04-23 00:14 45.98015 -71.34354 30693 ft 396 kts 273°
2026-04-23 00:15 45.97918 -71.38287 30132 ft 391 kts 273°
2026-04-23 00:15 45.97823 -71.42169 29513 ft 386 kts 273°
2026-04-23 00:15 45.97729 -71.45987 28988 ft 378 kts 273°
2026-04-23 00:15 45.97634 -71.49723 28468 ft 372 kts 273°
2026-04-23 00:16 45.97542 -71.53413 27956 ft 365 kts 273°
2026-04-23 00:16 45.97450 -71.57049 27530 ft 366 kts 272°
2026-04-23 00:16 45.97358 -71.60699 27090 ft 365 kts 272°
2026-04-23 00:16 45.97263 -71.64330 26658 ft 363 kts 272°
2026-04-23 00:17 45.97167 -71.67946 26223 ft 360 kts 272°
2026-04-23 00:17 45.97070 -71.71508 25794 ft 357 kts 272°
2026-04-23 00:17 45.96971 -71.75055 25364 ft 354 kts 272°
2026-04-23 00:17 45.96872 -71.78583 24944 ft 351 kts 272°
2026-04-23 00:18 45.96777 -71.82069 24521 ft 348 kts 272°
2026-04-23 00:18 45.96682 -71.85523 24113 ft 346 kts 271°
2026-04-23 00:18 45.96584 -71.88985 23697 ft 343 kts 271°
2026-04-23 00:18 45.96483 -71.92397 23241 ft 341 kts 271°
2026-04-23 00:19 45.96381 -71.95789 22829 ft 339 kts 271°
2026-04-23 00:19 45.96281 -71.99154 22425 ft 337 kts 271°
2026-04-23 00:19 45.96182 -72.02511 22022 ft 335 kts 271°
2026-04-23 00:19 45.96080 -72.05849 21615 ft 334 kts 271°
2026-04-23 00:20 45.95979 -72.09166 21222 ft 332 kts 271°
2026-04-23 00:20 45.95877 -72.12474 20824 ft 330 kts 271°
2026-04-23 00:20 45.95775 -72.15767 20431 ft 328 kts 271°
2026-04-23 00:20 45.95672 -72.19036 20033 ft 327 kts 271°
2026-04-23 00:21 45.95570 -72.22293 19650 ft 325 kts 271°
2026-04-23 00:21 45.95469 -72.25531 19259 ft 324 kts 271°
2026-04-23 00:21 45.95365 -72.28745 18874 ft 322 kts 271°
2026-04-23 00:21 45.95258 -72.31953 18490 ft 321 kts 271°
2026-04-23 00:22 45.95152 -72.35150 18096 ft 319 kts 271°
2026-04-23 00:22 45.95019 -72.38330 17842 ft 319 kts 267°
2026-04-23 00:22 45.94504 -72.41458 17837 ft 325 kts 256°
2026-04-23 00:22 45.93560 -72.44451 17003 ft 335 kts 248°
2026-04-23 00:23 45.92467 -72.47414 16168 ft 331 kts 247°
2026-04-23 00:23 45.91384 -72.50267 15915 ft 324 kts 247°
2026-04-23 00:23 45.90308 -72.53100 15602 ft 320 kts 247°
2026-04-23 00:23 45.89249 -72.55910 15341 ft 319 kts 247°
2026-04-23 00:24 45.88201 -72.58706 14979 ft 317 kts 247°
2026-04-23 00:24 45.87162 -72.61487 14599 ft 315 kts 248°
2026-04-23 00:24 45.86130 -72.64252 14218 ft 314 kts 248°
2026-04-23 00:24 45.85102 -72.67006 13847 ft 312 kts 248°
2026-04-23 00:25 45.84082 -72.69745 13440 ft 311 kts 247°
2026-04-23 00:25 45.83061 -72.72478 13070 ft 310 kts 247°
2026-04-23 00:25 45.82043 -72.75195 12702 ft 309 kts 247°
2026-04-23 00:25 45.81067 -72.77796 12339 ft 309 kts 246°
2026-04-23 00:26 45.80050 -72.80496 11974 ft 308 kts 246°
2026-04-23 00:26 45.79031 -72.83196 11605 ft 307 kts 246°
2026-04-23 00:26 45.78014 -72.85885 11238 ft 307 kts 246°
2026-04-23 00:26 45.76997 -72.88577 10876 ft 306 kts 246°
2026-04-23 00:27 45.75985 -72.91257 10510 ft 305 kts 245°
2026-04-23 00:27 45.74987 -72.93894 10277 ft 296 kts 245°
2026-04-23 00:27 45.74026 -72.96417 10161 ft 283 kts 245°
2026-04-23 00:27 45.73097 -72.98852 9930 ft 275 kts 245°
2026-04-23 00:28 45.72225 -73.01267 9793 ft 271 kts 251°
2026-04-23 00:28 45.71725 -73.03839 9563 ft 266 kts 264°
2026-04-23 00:28 45.71458 -73.06454 9213 ft 265 kts 264°
2026-04-23 00:28 45.71188 -73.09059 8831 ft 264 kts 264°
2026-04-23 00:29 45.70918 -73.11650 8450 ft 263 kts 264°
2026-04-23 00:29 45.70513 -73.14201 8068 ft 264 kts 258°
2026-04-23 00:29 45.70050 -73.16736 7700 ft 263 kts 258°
2026-04-23 00:29 45.69590 -73.19272 7315 ft 262 kts 258°
2026-04-23 00:30 45.69133 -73.21792 6947 ft 262 kts 258°
2026-04-23 00:30 45.68676 -73.24310 6568 ft 261 kts 258°
2026-04-23 00:30 45.68219 -73.26820 6236 ft 258 kts 258°
2026-04-23 00:30 45.68067 -73.27649 6191 ft 254 kts 258°
2026-04-23 00:31 45.67670 -73.29829 6078 ft 243 kts 258°
2026-04-23 00:31 45.67254 -73.32106 5936 ft 232 kts 258°
2026-04-23 00:31 45.66848 -73.34324 5646 ft 229 kts 258°
2026-04-23 00:32 45.66450 -73.36515 5361 ft 225 kts 257°
2026-04-23 00:32 45.66057 -73.38666 5044 ft 225 kts 257°
2026-04-23 00:32 45.65653 -73.40873 4514 ft 234 kts 256°
2026-04-23 00:32 45.65243 -73.43109 4260 ft 229 kts 256°
2026-04-23 00:33 45.64845 -73.45258 4134 ft 219 kts 256°
2026-04-23 00:33 45.64464 -73.47306 4034 ft 209 kts 256°
2026-04-23 00:33 45.64104 -73.49251 4005 ft 195 kts 256°
2026-04-23 00:33 45.63774 -73.51035 4014 ft 178 kts 256°
2026-04-23 00:34 45.63470 -73.52677 4001 ft 166 kts 256°
2026-04-23 00:34 45.63002 -73.54168 3982 ft 166 kts 236°
2026-04-23 00:34 45.62195 -73.55344 3839 ft 166 kts 224°
2026-04-23 00:34 45.61348 -73.56463 3639 ft 165 kts 224°
2026-04-23 00:35 45.60510 -73.57569 3426 ft 164 kts 224°
2026-04-23 00:35 45.59669 -73.58679 3211 ft 165 kts 224°
2026-04-23 00:35 45.58821 -73.59796 2977 ft 166 kts 224°
2026-04-23 00:35 45.57968 -73.60921 2757 ft 168 kts 223°
2026-04-23 00:36 45.57112 -73.62048 2526 ft 166 kts 223°
2026-04-23 00:36 45.56273 -73.63152 2298 ft 162 kts 222°
2026-04-23 00:36 45.55450 -73.64232 2067 ft 161 kts 222°
2026-04-23 00:36 45.54626 -73.65310 1820 ft 160 kts 222°
2026-04-23 00:37 45.53818 -73.66395 1609 ft 159 kts 223°
2026-04-23 00:37 45.53018 -73.67463 1427 ft 153 kts 221°
2026-04-23 00:37 45.52249 -73.68446 1220 ft 143 kts 220°
2026-04-23 00:37 45.51548 -73.69354 1008 ft 132 kts 221°
2026-04-23 00:38 45.50900 -73.70239 805 ft 128 kts 221°
2026-04-23 00:38 45.50253 -73.71089 645 ft 126 kts 220°
2026-04-23 00:38 45.49600 -73.71921 488 ft 125 kts 220°
2026-04-23 00:38 45.48958 -73.72765 322 ft 126 kts 221°
2026-04-23 00:39 45.48317 -73.73611 166 ft 126 kts 221°
2026-04-23 00:39 45.47726 -73.74388 111 ft 98 kts 222°
2026-04-23 00:39 45.47334 -73.74895 115 ft 40 kts 218°
2026-04-23 00:39 45.47160 -73.75122 114 ft 33 kts 225°
2026-04-23 00:40 45.46991 -73.75347 110 ft 34 kts 222°
2026-04-23 00:40 45.46823 -73.75539 107 ft 29 kts 207°
2026-04-23 00:40 45.46676 -73.75611 107 ft 22 kts 194°
2026-04-23 00:40 45.46517 -73.75661 105 ft 24 kts 194°
2026-04-23 00:41 45.46391 -73.75701 104 ft 17 kts 193°
2026-04-23 00:41 45.46300 -73.75727 105 ft 14 kts 188°
2026-04-23 00:41 45.46198 -73.75725 103 ft 16 kts 179°
2026-04-23 00:41 45.46126 -73.75725 102 ft 6 kts 116°
2026-04-23 00:42 45.46132 -73.75658 102 ft 9 kts 83°
2026-04-23 00:42 45.46134 -73.75556 102 ft 12 kts 89°
2026-04-23 00:42 45.46139 -73.75419 102 ft 16 kts 89°
2026-04-23 00:42 45.46090 -73.75366 103 ft 10 kts 182°
2026-04-23 00:43 45.46035 -73.75309 105 ft 11 kts 117°
2026-04-23 00:43 45.46005 -73.75189 105 ft 15 kts 92°
2026-04-23 00:43 45.46011 -73.75075 105 ft 10 kts 90°
2026-04-23 00:43 45.45990 -73.74981 104 ft 10 kts 122°
2026-04-23 00:44 45.45981 -73.74874 105 ft 12 kts 88°
2026-04-23 00:44 45.45978 -73.74768 105 ft 9 kts 102°
2026-04-23 00:44 45.45964 -73.74714 103 ft 2 kts 110°
2026-04-23 00:44 45.45961 -73.74700 104 ft 3 kts 107°
2026-04-23 00:45 45.45961 -73.74699 104 ft 0 kts 107°
2026-04-23 00:46 45.45958 -73.74685 105 ft 3 kts 107°
2026-04-23 00:46 45.45955 -73.74660 105 ft 5 kts 98°
2026-04-23 00:47 45.45957 -73.74601 105 ft 7 kts 82°
2026-04-23 00:47 45.45960 -73.74537 104 ft 6 kts 109°
2026-04-23 00:47 45.45942 -73.74499 104 ft 1 kts 137°
2026-04-23 00:47 45.45932 -73.74492 105 ft 2 kts 156°
2026-04-23 00:48 45.45918 -73.74493 105 ft 3 kts 183°
2026-04-23 00:48 45.45901 -73.74493 105 ft 1 kts 178°
2026-04-23 00:48 45.45892 -73.74492 105 ft 2 kts 178°
2026-04-23 00:48 45.45886 -73.74492 105 ft 0 kts 177°